Regional Weather Roundup
Issued by NWS

Home | Current Version | Previous Version | Graphics & Text | Print | Product List | Glossary On
Versions: 1 2 3 4 5 6 7 8 9 10 11 12 13 14 15 16 17 18 19 20 21 22 23 24 25 26 27 28 29 30 31 32 33 34 35 36 37 38 39 40 41 42 43 44 45 46 47 48 49 50
000
ASUS43 KTOP 021508
RWRKS

WEATHER ROUNDUP FOR KANSAS
NATIONAL WEATHER SERVICE GOODLAND KS
900 AM CST TUE MAR 02 2021

NOTE:  "FAIR" INDICATES FEW OR NO CLOUDS BELOW 12,000 FEET WITH NO
SIGNIFICANT WEATHER AND/OR OBSTRUCTIONS TO VISIBILITY.

KSZ001>006-013>018-027>032-041>047-021600-
NORTHWEST KANSAS

CITY           SKY/WX    TMP DP  RH WIND       PRES   REMARKS
GOODLAND       SUNNY     35  12  38 W7        30.04S
HAYS           SUNNY     36  19  50 SW9       30.15R
HILL CITY      SUNNY     38  16  40 SW12      30.11R WCI  30
RUSSELL        SUNNY     36  19  50 S8        30.13S
$$

KSZ061>065-074>080-084>089-021600-
SOUTHWEST KANSAS

CITY           SKY/WX    TMP DP  RH WIND       PRES   REMARKS
DODGE CITY     SUNNY     39  14  36 SW10      30.15S WCI  32
ELKHART        SUNNY     45  16  31 SW20      30.11S
GARDEN CITY    SUNNY     36  13  38 SW8       30.12S
GREAT BEND     SUNNY     37  21  52 S10       30.17S WCI  30
LIBERAL        SUNNY     34  13  41 SW13      30.16F WCI  25
PRATT          SUNNY     39  21  49 S9        30.19R
$$

KSZ066>073-081>083-090>101-021600-
SOUTHEAST KANSAS

CITY           SKY/WX    TMP DP  RH WIND       PRES   REMARKS
CHANUTE        SUNNY     42  29  59 S14       30.27S
COFFEYVILLE    SUNNY     43  29  57 S7        30.28S
HUTCHINSON     SUNNY     40  24  53 S5        30.20S
MEDICINE LODGE   N/A     34  23  64 CALM      30.21S
NEWTON         SUNNY     45  26  47 S12       30.22S
PARSONS          N/A    N/A N/A N/A MISG      30.29R
WICHITA INTL   SUNNY     41  28  60 S9        30.22S
WICHITA JABRA  SUNNY     44  26  49 S8        30.23R
WICHITA MCCONL SUNNY     43  23  45 S7        30.23R
WINFIELD       SUNNY     42  28  57 S6        30.26S
$$

KSZ007>012-019>026-033>040-048>060-102>105-021600-
NORTHEAST KANSAS

CITY           SKY/WX    TMP DP  RH WIND       PRES   REMARKS
CONCORDIA      MOSUNNY   43  21  41 SW16      30.15S
EMPORIA        SUNNY     41  29  62 SW7       30.23S
LAWRENCE       SUNNY     36  28  73 SE3       30.25R
MANHATTAN      SUNNY     37  25  61 S3        30.21S
MARYSVILLE     SUNNY     37  28  70 S10       30.18F WCI  30
OLATHE IND     SUNNY     40  28  62 S8        30.25R
OLATHE EXE     SUNNY     40  29  64 S7        30.24S
SALINA         SUNNY     40  25  55 S9        30.19S
TOPEKA BILLARD SUNNY     38  27  64 SE5       30.23S
TOPEKA FORBES  SUNNY     39  29  67 S10       30.23R WCI  32
$$




USA.gov is the U.S. government's official web portal to all federal, state and local government web resources and services.